When you browse on this site, cookies collect data to enhance your experience and personalize the content and advertising you see.
Visit our Privacy Policy to learn more. By continuing to use the site, you agree to this use of cookies and data.
  • en Suisse
  • Liste des pays
  • À 7 jours
  • Température de l'eau
  • Carte satellitaire
  • Carte météo
  • Widgets météo
  • user-avatar
    Se connecter

    Météo par heure à Tolukovychi

    Ce jour, 19 Février, Mardi

    Heure Température Précipitation Vent Pression Humidité
    00:00 +4°C° 0 mm 1 m/s 743 mmHg 86%
    01:00 +3°C° 0 mm 2 m/s 743 mmHg 86%
    02:00 +3°C° 0 mm 2 m/s 743 mmHg 85%
    03:00 +2°C° 0 mm 2 m/s 743 mmHg 85%
    04:00 +2°C° 0 mm 2 m/s 742 mmHg 84%
    05:00 +2°C° 0 mm 2 m/s 742 mmHg 83%
    06:00 +2°C° 0 mm 2 m/s 742 mmHg 83%
    07:00 +2°C° 0 mm 2 m/s 742 mmHg 83%
    08:00 +2°C° 0 mm 2 m/s 742 mmHg 82%
    09:00 +4°C° 0 mm 2 m/s 742 mmHg 75%
    10:00 +6°C° 0 mm 2 m/s 741 mmHg 68%
    11:00 +8°C° 0 mm 2 m/s 741 mmHg 61%
    12:00 +9°C° 0 mm 3 m/s 741 mmHg 57%
    13:00 +10°C° 0 mm 3 m/s 741 mmHg 54%
    14:00 +12°C° 0 mm 4 m/s 740 mmHg 51%
    15:00 +11°C° 0 mm 4 m/s 740 mmHg 54%
    16:00 +10°C° 0 mm 3 m/s 740 mmHg 57%
    17:00 +9°C° 0 mm 3 m/s 739 mmHg 60%
    18:00 +8°C° 0 mm 3 m/s 739 mmHg 64%
    19:00 +6°C° 0 mm 4 m/s 739 mmHg 68%
    20:00 +4°C° 0 mm 4 m/s 740 mmHg 72%
    21:00 +4°C° 0 mm 4 m/s 739 mmHg 73%
    22:00 +4°C° 0 mm 4 m/s 739 mmHg 74%
    23:00 +4°C° 0 mm 4 m/s 739 mmHg 74%

    Demain, 20 Février, Mercredi

    Heure Température Précipitation Vent Pression Humidité
    00:00 +4°C° 0 mm 4 m/s 739 mmHg 76%
    01:00 +3°C° 0 mm 4 m/s 739 mmHg 78%
    02:00 +3°C° 0 mm 4 m/s 739 mmHg 80%
    03:00 +3°C° 0.2 mm 4 m/s 739 mmHg 80%
    04:00 +2°C° 0.2 mm 5 m/s 739 mmHg 81%
    05:00 +3°C° 0.2 mm 5 m/s 739 mmHg 81%
    06:00 +2°C° 0.1 mm 5 m/s 739 mmHg 84%
    07:00 +3°C° 0.1 mm 4 m/s 739 mmHg 87%
    08:00 +3°C° 0.1 mm 4 m/s 740 mmHg 91%
    09:00 +2°C° 0 mm 5 m/s 740 mmHg 87%
    10:00 +3°C° 0 mm 6 m/s 740 mmHg 83%
    11:00 +3°C° 0 mm 6 m/s 740 mmHg 79%
    12:00 +3°C° 0 mm 6 m/s 741 mmHg 77%
    13:00 +3°C° 0 mm 6 m/s 741 mmHg 75%
    14:00 +4°C° 0 mm 7 m/s 741 mmHg 73%
    15:00 +4°C° 0.1 mm 6 m/s 741 mmHg 71%
    16:00 +4°C° 0.1 mm 6 m/s 741 mmHg 70%
    17:00 +5°C° 0.1 mm 5 m/s 741 mmHg 68%
    18:00 +3°C° 0.1 mm 5 m/s 742 mmHg 71%
    19:00 +3°C° 0.1 mm 5 m/s 742 mmHg 74%
    20:00 +3°C° 0.1 mm 4 m/s 742 mmHg 77%
    21:00 +3°C° 0.1 mm 4 m/s 743 mmHg 77%
    22:00 +3°C° 0.1 mm 4 m/s 743 mmHg 78%
    23:00 +2°C° 0.1 mm 5 m/s 743 mmHg 78%

    Après-demain, 21 Février, Jeudi

    Heure Température Précipitation Vent Pression Humidité
    00:00 +2°C° 0 mm 5 m/s 743 mmHg 78%
    01:00 +3°C° 0 mm 4 m/s 743 mmHg 78%
    02:00 +3°C° 0 mm 4 m/s 744 mmHg 78%
    03:00 +3°C° 0 mm 4 m/s 744 mmHg 79%
    04:00 +3°C° 0 mm 4 m/s 744 mmHg 79%
    05:00 +3°C° 0 mm 4 m/s 743 mmHg 79%
    06:00 +3°C° 0 mm 4 m/s 744 mmHg 80%
    07:00 +2°C° 0 mm 5 m/s 744 mmHg 81%
    08:00 +2°C° 0 mm 5 m/s 744 mmHg 82%
    09:00 +3°C° 0 mm 5 m/s 744 mmHg 80%
    10:00 +3°C° 0 mm 6 m/s 744 mmHg 79%
    11:00 +4°C° 0 mm 6 m/s 744 mmHg 77%
    12:00 +4°C° 0 mm 6 m/s 743 mmHg 74%
    13:00 +5°C° 0 mm 6 m/s 743 mmHg 72%
    14:00 +5°C° 0 mm 6 m/s 743 mmHg 69%
    15:00 +5°C° 0.1 mm 6 m/s 743 mmHg 71%
    16:00 +5°C° 0.1 mm 5 m/s 742 mmHg 73%
    17:00 +5°C° 0.1 mm 5 m/s 742 mmHg 75%
    18:00 +3°C° 0.4 mm 5 m/s 742 mmHg 78%
    19:00 +3°C° 0.4 mm 5 m/s 742 mmHg 81%
    20:00 +3°C° 0.4 mm 5 m/s 742 mmHg 83%
    21:00 +3°C° 0.6 mm 5 m/s 742 mmHg 85%
    22:00 +3°C° 0.6 mm 5 m/s 741 mmHg 86%
    23:00 +3°C° 0.6 mm 5 m/s 741 mmHg 88%

    22 Février, Vendredi

    Heure Température Précipitation Vent Pression Humidité
    00:00 +3°C° 0.7 mm 5 m/s 741 mmHg 89%
    01:00 +3°C° 0.7 mm 5 m/s 741 mmHg 90%
    02:00 +3°C° 0.7 mm 5 m/s 741 mmHg 91%
    03:00 +3°C° 0.5 mm 5 m/s 741 mmHg 92%
    04:00 +4°C° 0.5 mm 4 m/s 741 mmHg 93%
    05:00 +4°C° 0.5 mm 4 m/s 741 mmHg 94%
    06:00 +2°C° 0.5 mm 5 m/s 741 mmHg 93%
    07:00 +1°C° 0.5 mm 5 m/s 742 mmHg 92%
    08:00 -1°C° 0.5 mm 6 m/s 743 mmHg 90%
    09:00 -2°C° 0.5 mm 6 m/s 743 mmHg 88%
    10:00 -3°C° 0.5 mm 6 m/s 744 mmHg 85%
    11:00 -4°C° 0.5 mm 6 m/s 745 mmHg 82%
    12:00 -4°C° 0.1 mm 6 m/s 746 mmHg 77%
    13:00 -4°C° 0.1 mm 6 m/s 747 mmHg 72%
    14:00 -4°C° 0.1 mm 6 m/s 748 mmHg 67%
    15:00 -4°C° 0 mm 7 m/s 749 mmHg 66%
    16:00 -6°C° 0 mm 7 m/s 749 mmHg 65%
    17:00 -6°C° 0 mm 7 m/s 750 mmHg 64%
    18:00 -6°C° 0 mm 6 m/s 751 mmHg 64%
    19:00 -6°C° 0 mm 5 m/s 752 mmHg 64%
    20:00 -7°C° 0 mm 5 m/s 753 mmHg 64%
    21:00 -7°C° 0 mm 4 m/s 753 mmHg 62%
    22:00 -7°C° 0 mm 4 m/s 754 mmHg 61%
    23:00 -8°C° 0 mm 4 m/s 755 mmHg 59%

    23 Février, Samedi

    Heure Température Précipitation Vent Pression Humidité
    00:00 -8°C° 0 mm 4 m/s 755 mmHg 58%
    01:00 -7°C° 0 mm 3 m/s 755 mmHg 56%
    02:00 -7°C° 0 mm 3 m/s 755 mmHg 55%
    03:00 -7°C° 0 mm 3 m/s 755 mmHg 55%
    04:00 -7°C° 0 mm 3 m/s 755 mmHg 55%
    05:00 -7°C° 0 mm 3 m/s 755 mmHg 55%
    06:00 -6°C° 0 mm 3 m/s 755 mmHg 54%
    07:00 -6°C° 0 mm 3 m/s 756 mmHg 54%
    08:00 -6°C° 0 mm 3 m/s 756 mmHg 53%
    09:00 -5°C° 0 mm 3 m/s 756 mmHg 49%
    10:00 -5°C° 0 mm 4 m/s 756 mmHg 46%
    11:00 -4°C° 0 mm 4 m/s 756 mmHg 42%
    12:00 -3°C° 0 mm 4 m/s 756 mmHg 40%
    13:00 -3°C° 0 mm 4 m/s 755 mmHg 38%
    14:00 -2°C° 0 mm 4 m/s 755 mmHg 36%
    15:00 -2°C° 0 mm 4 m/s 754 mmHg 37%
    16:00 -2°C° 0 mm 4 m/s 754 mmHg 38%
    17:00 -2°C° 0 mm 4 m/s 753 mmHg 39%
    18:00 -2°C° 0 mm 3 m/s 754 mmHg 42%
    19:00 -2°C° 0 mm 3 m/s 754 mmHg 46%
    20:00 -2°C° 0 mm 2 m/s 754 mmHg 49%
    21:00 -3°C° 0 mm 2 m/s 754 mmHg 53%
    22:00 -3°C° 0 mm 2 m/s 753 mmHg 57%
    23:00 -3°C° 0 mm 2 m/s 753 mmHg 61%

    24 Février, Dimanche

    Heure Température Précipitation Vent Pression Humidité
    00:00 -3°C° 0 mm 2 m/s 753 mmHg 63%
    01:00 -3°C° 0 mm 2 m/s 753 mmHg 66%
    02:00 -3°C° 0 mm 2 m/s 753 mmHg 68%
    03:00 -3°C° 0 mm 2 m/s 753 mmHg 69%
    04:00 -3°C° 0 mm 2 m/s 753 mmHg 69%
    05:00 -3°C° 0 mm 2 m/s 753 mmHg 69%
    06:00 -3°C° 0 mm 2 m/s 753 mmHg 71%
    07:00 -1°C° 0 mm 1 m/s 753 mmHg 73%
    08:00 -1°C° 0 mm 1 m/s 753 mmHg 75%
    09:00 -1°C° 0 mm 1 m/s 753 mmHg 74%
    10:00 0°C° 0 mm 1 m/s 753 mmHg 73%
    11:00 0°C° 0 mm 1 m/s 753 mmHg 72%
    12:00 +1°C° 0 mm 1 m/s 753 mmHg 71%
    13:00 -1°C° 0 mm 2 m/s 753 mmHg 69%
    14:00 +1°C° 0 mm 2 m/s 753 mmHg 68%
    15:00 +1°C° 0 mm 2 m/s 753 mmHg 70%
    16:00 +1°C° 0 mm 2 m/s 752 mmHg 72%
    17:00 +2°C° 0 mm 1 m/s 752 mmHg 73%
    18:00 +1°C° 0 mm 1 m/s 752 mmHg 76%
    19:00 +1°C° 0 mm 1 m/s 752 mmHg 79%
    20:00 0°C° 0 mm 0 m/s 752 mmHg 82%
    21:00 -1°C° 0 mm 0 m/s 752 mmHg 84%
    22:00 -1°C° 0 mm 0 m/s 752 mmHg 85%
    23:00 -1°C° 0 mm 0 m/s 751 mmHg 86%
    Voir plus